DW7447 Weather Reports


Display with metric or nautical units.
time (UTC)temp
F
wind
direction
speed
MPH
gust
MPH
rain 1hr
in
rain 24hr
in
rain mn
in
humidity
%
barometer
mb
20260902161540 60 185 9.0 14.0 0.01 0.07 0.07 90 1012.2
20260902161038 60 169 4.0 13.0 0.01 0.07 0.07 90 1012.3
20260902160535 60 145 5.0 11.0 0.01 0.07 0.07 90 1012.3
20260902160034 60 188 6.0 11.0 0.01 0.07 0.07 91 1012.3
20260902155534 60 166 5.0 13.0 0.01 0.07 0.07 91 1012.4
20260902154535 60 183 3.0 11.0 0.01 0.07 0.07 91 1012.5
20260902154034 60 157 3.0 9.0 0.01 0.07 0.07 91 1012.6
20260902153536 60 104 3.0 13.0 0.01 0.06 0.06 91 1012.6
20260902153035 59 140 6.0 14.0 0.01 0.06 0.06 91 1012.6
20260902152534 59 123 6.0 14.0 0.01 0.06 0.06 91 1012.7
20260902152036 59 189 8.0 14.0 0.01 0.06 0.06 91 1012.8
20260902151537 59 161 6.0 14.0 0.01 0.06 0.06 91 1012.8
20260902151043 59 179 7.0 14.0 0.01 0.06 0.06 90 1012.9
20260902150537 59 169 6.0 14.0 0.01 0.06 0.06 90 1013.1
20260902150034 60 138 7.0 17.0 0.01 0.06 0.06 90 1013.1
20260902145535 60 183 6.0 17.0 0.01 0.06 0.04 89 1013.1
20260902145035 60 204 7.0 13.0 0.01 0.06 0.04 89 1013.3
20260902144535 60 172 8.0 16.0 0.01 0.06 0.04 88 1013.3
20260902144034 60 209 6.0 16.0 0.01 0.06 0.04 88 1013.3
20260902143535 60 219 9.0 15.0 0.00 0.06 0.03 88 1013.5
20260902143035 60 200 8.0 13.0 0.00 0.06 0.03 88 1013.6
20260902142534 60 166 7.0 13.0 0.00 0.06 0.03 88 1013.6
20260902142034 60 213 4.0 12.0 0.00 0.06 0.03 87 1013.5
20260902141537 61 210 8.0 13.0 0.01 0.06 0.03 87 1013.7
20260902141036 61 195 6.0 13.0 0.01 0.06 0.03 87 1013.7
20260902140537 61 197 6.0 11.0 0.02 0.06 0.03 88 1013.9
20260902140034 61 233 5.0 11.0 0.02 0.06 0.03 88 1013.8
20260902135536 61 179 7.0 11.0 0.02 0.06 0.06 89 1013.8
20260902134535 61 166 4.0 8.0 0.03 0.06 0.06 89 1013.9
20260902134036 61 192 5.0 8.0 0.03 0.06 0.06 90 1013.9
20260902133535 61 202 3.0 8.0 0.04 0.06 0.06 89 1014.0
20260902133035 61 212 4.0 7.0 0.04 0.06 0.06 90 1014.0
20260902132536 61 204 3.0 7.0 0.04 0.06 0.06 89 1014.1
20260902132035 60 245 3.0 7.0 0.04 0.06 0.06 89 1014.1
20260902131537 60 231 4.0 8.0 0.03 0.05 0.05 89 1014.2
20260902130535 61 168 4.0 9.0 0.02 0.04 0.04 87 1014.3
20260902130041 61 245 4.0 11.0 0.02 0.03 0.03 85 1014.4
20260902125538 61 231 6.0 14.0 0.02 0.03 0.02 85 1014.4
20260902125040 62 231 7.0 14.0 0.01 0.02 0.02 84 1014.4
20260902124534 62 226 10.0 14.0 0.01 0.02 0.02 81 1014.5
20260902123534 64 206 6.0 14.0 0.00 0.02 0.02 78 1014.5
20260902123032 64 240 9.0 17.0 0.00 0.02 0.02 78 1014.7
20260902122535 64 190 11.0 17.0 0.00 0.02 0.02 77 1014.6
20260902122034 64 207 10.0 16.0 0.00 0.02 0.02 78 1014.6
20260902121519 64 221 7.0 12.0 0.00 0.02 0.02 77 1014.7
20260902120513 65 226 6.0 18.0 0.00 0.02 0.02 76 1014.7
20260902120011 64 171 11.0 18.0 0.00 0.02 0.02 77 1014.8
20260902115510 64 169 10.0 14.0 0.00 0.02 0.02 77 1014.8
20260902113506 64 188 9.0 19.0 0.00 0.02 0.02 77 1015.1
20260902113008 64 173 8.0 19.0 0.00 0.02 0.02 77 1015.1
20260902112504 64 206 5.0 14.0 0.00 0.02 0.02 77 1015.2
20260902112006 64 173 7.0 16.0 0.00 0.02 0.02 77 1015.3
20260902110958 64 235 7.0 14.0 0.00 0.02 0.02 74 1015.4
20260902110500 65 213 7.0 18.0 0.00 0.02 0.02 74 1015.4
20260902105951 65 252 12.0 18.0 0.00 0.02 0.02 74 1015.4
20260902105439 65 210 9.0 15.0 0.00 0.02 0.02 76 1015.4
20260902104935 65 245 9.0 18.0 0.00 0.02 0.02 76 1015.3
20260902104434 65 264 10.0 18.0 0.00 0.02 0.02 78 1015.2
20260902103932 65 200 7.0 16.0 0.00 0.02 0.02 78 1015.1
20260902102925 65 213 10.0 16.0 0.00 0.02 0.02 78 1015.2
20260902102416 64 212 11.0 16.0 0.00 0.02 0.02 79 1015.2
20260902101404 64 209 11.0 16.0 0.00 0.02 0.02 81 1015.3
20260902100905 62 203 7.0 15.0 0.00 0.02 0.02 84 1015.3
20260902100405 62 182 7.0 15.0 0.00 0.02 0.02 84 1015.3
20260902095351 61 209 5.0 13.0 0.00 0.02 0.02 86 1015.4
20260902094851 61 231 6.0 15.0 0.00 0.02 0.02 86 1015.4
20260902093333 61 183 8.0 15.0 0.00 0.02 0.02 87 1015.4
20260902092335 60 223 7.0 13.0 0.00 0.02 0.02 87 1015.6
20260902090336 60 243 5.0 14.0 0.00 0.02 0.02 87 1015.7
20260902085335 60 234 9.0 16.0 0.00 0.02 0.02 87 1015.5
20260902084833 60 233 5.0 11.0 0.00 0.02 0.02 87 1015.6
20260902083841 61 214 6.0 12.0 0.00 0.02 0.02 87 1015.3
20260902083335 61 196 5.0 12.0 0.00 0.02 0.02 87 1015.2
20260902082334 61 209 1.0 12.0 0.00 0.02 0.02 87 1015.3
20260902081834 60 231 7.0 14.0 0.00 0.02 0.02 87 1015.5
20260902081333 60 243 7.0 14.0 0.00 0.02 0.02 88 1015.5
20260902080332 60 243 4.0 13.0 0.00 0.02 0.02 89 1015.4
20260902075833 60 230 4.0 17.0 0.00 0.02 0.02 88 1015.4
20260902075335 59 183 8.0 17.0 0.00 0.02 0.02 88 1015.3
20260902074833 59 219 10.0 17.0 0.00 0.02 0.02 90 1015.3
20260902074335 59 235 7.0 15.0 0.00 0.02 0.02 90 1015.2
20260902073834 58 217 6.0 12.0 0.00 0.02 0.02 90 1015.3
20260902073333 58 206 6.0 9.0 0.00 0.02 0.02 90 1015.3
20260902072834 58 220 4.0 8.0 0.00 0.02 0.02 90 1015.3
20260902072334 58 210 4.0 9.0 0.00 0.02 0.02 91 1015.3
20260902071834 58 221 6.0 13.0 0.00 0.02 0.02 91 1015.4
20260902071338 58 206 8.0 14.0 0.00 0.02 0.02 91 1015.3
20260902065335 58 209 7.0 12.0 0.00 0.02 0.02 92 1015.2
20260902064333 58 233 6.0 13.0 0.00 0.02 0.02 92 1015.3
20260902063833 57 221 6.0 13.0 0.00 0.02 0.02 92 1015.3
20260902062836 57 210 6.0 13.0 0.00 0.02 0.02 93 1015.2
20260902062334 57 207 8.0 13.0 0.00 0.02 0.02 93 1015.2
20260902061835 57 213 7.0 14.0 0.00 0.02 0.02 93 1015.2
20260902061335 57 227 6.0 14.0 0.00 0.02 0.02 93 1015.3
20260902060835 57 219 6.0 17.0 0.00 0.02 0.02 93 1015.2
20260902060335 57 237 9.0 17.0 0.00 0.02 0.02 93 1015.1
20260902055835 57 197 6.0 13.0 0.00 0.02 0.02 93 1015.1
20260902055338 57 241 7.0 13.0 0.00 0.02 0.02 93 1015.0
20260902054840 57 178 5.0 14.0 0.00 0.02 0.02 92 1015.1
20260902054336 57 214 9.0 14.0 0.00 0.02 0.02 92 1015.1
20260902053833 57 195 7.0 14.0 0.00 0.02 0.02 91 1015.0
20260902053334 57 248 8.0 14.0 0.00 0.02 0.02 91 1015.0
20260902052833 57 197 6.0 14.0 0.00 0.02 0.02 91 1015.0
20260902051833 57 234 6.0 14.0 0.00 0.02 0.02 91 1015.0
20260902051333 57 204 8.0 12.0 0.00 0.02 0.02 91 1015.0
20260902050833 57 265 5.0 11.0 0.00 0.02 0.02 91 1015.0
20260902045834 57 206 5.0 12.0 0.00 0.02 0.02 91 1015.0
20260902045334 57 207 4.0 11.0 0.00 0.02 0.02 91 1015.0
20260902044834 57 189 5.0 12.0 0.00 0.02 0.02 91 1015.0
20260902044333 57 230 6.0 12.0 0.00 0.02 0.02 91 1015.1
20260902043334 57 248 6.0 13.0 0.00 0.02 0.02 91 1015.0
20260902042333 57 216 6.0 13.0 0.00 0.02 0.02 91 1015.1
20260902041835 57 221 5.0 13.0 0.00 0.02 0.02 91 1015.0
20260902041333 57 212 5.0 13.0 0.00 0.02 0.02 92 1015.1
20260902040837 57 252 5.0 12.0 0.00 0.02 0.02 92 1015.0
20260902040334 57 209 5.0 12.0 0.00 0.02 0.02 92 1015.0
20260902035835 57 202 6.0 12.0 0.00 0.02 0.02 92 1015.1
20260902035335 57 192 5.0 11.0 0.00 0.02 0.02 92 1015.1
20260902034334 57 230 5.0 8.0 0.00 0.02 0.02 92 1015.2
20260902033834 57 248 4.0 8.0 0.00 0.02 0.02 92 1015.1
20260902033333 57 221 3.0 11.0 0.00 0.02 0.02 92 1015.2
20260902032339 57 213 5.0 9.0 0.00 0.02 0.02 91 1015.3
20260902031837 57 251 4.0 14.0 0.00 0.02 0.02 92 1015.2
20260902031333 57 221 7.0 14.0 0.00 0.02 0.02 92 1015.2
20260902030334 57 231 7.0 12.0 0.00 0.02 0.02 92 1015.2
20260902025831 57 221 6.0 11.0 0.00 0.02 0.02 92 1015.2
20260902025315 57 186 5.0 9.0 0.00 0.02 0.02 92 1015.3
20260902024805 57 240 4.0 11.0 0.00 0.02 0.02 92 1015.4
20260902024305 57 240 5.0 12.0 0.00 0.02 0.02 92 1015.3
20260902023802 57 255 6.0 12.0 0.00 0.02 0.02 92 1015.3
20260902023303 57 210 5.0 11.0 0.00 0.02 0.02 92 1015.4
20260902022804 57 223 4.0 7.0 0.00 0.02 0.02 92 1015.4
20260902022306 57 200 2.0 7.0 0.00 0.02 0.02 92 1015.4
20260902021804 57 189 3.0 15.0 0.00 0.02 0.02 92 1015.4
20260902021303 57 207 4.0 15.0 0.00 0.02 0.02 92 1015.4
20260902020254 57 189 5.0 11.0 0.00 0.02 0.02 92 1015.5
20260902015739 57 220 4.0 8.0 0.00 0.02 0.02 92 1015.6
20260902015233 57 227 5.0 8.0 0.00 0.02 0.02 92 1015.5
20260902014734 57 179 5.0 9.0 0.00 0.02 0.02 92 1015.5
20260902013733 57 196 6.0 13.0 0.00 0.02 0.02 92 1015.4
20260902012734 57 244 10.0 14.0 0.01 0.02 0.02 92 1015.5
20260902012233 57 223 5.0 11.0 0.01 0.02 0.02 92 1015.5
20260902011233 57 214 6.0 14.0 0.01 0.02 0.02 92 1015.6
20260902010734 57 207 8.0 14.0 0.01 0.02 0.02 92 1015.4
20260902005734 57 196 6.0 12.0 0.01 0.02 0.02 92 1015.5
20260902005233 57 199 6.0 12.0 0.01 0.02 0.02 92 1015.6
20260902004734 57 207 7.0 14.0 0.01 0.02 0.02 92 1015.5
20260902003733 57 212 6.0 11.0 0.02 0.02 0.02 92 1015.5
20260902003233 57 204 6.0 11.0 0.02 0.02 0.01 92 1015.5
20260902002736 57 219 7.0 9.0 0.01 0.01 0.01 92 1015.6
20260902002232 57 207 4.0 8.0 0.01 0.01 0.01 91 1015.6
20260902001732 57 196 4.0 8.0 0.01 0.01 0.01 91 1015.6
20260902001239 57 219 4.0 11.0 0.01 0.01 0.01 91 1015.7
20260902000733 57 238 5.0 12.0 0.01 0.01 0.01 91 1015.7
20260902000233 57 212 5.0 12.0 0.01 0.01 0.01 91 1015.6
20260901235232 58 200 7.0 13.0 0.01 0.01 0.01 91 1015.7
20260901234733 58 195 6.0 13.0 0.01 0.01 0.01 91 1015.6
20260901234233 58 227 8.0 13.0 0.00 0.00 0.00 91 1015.6
20260901233233 58 178 4.0 12.0 0.00 0.00 0.00 90 1015.7
20260901232733 58 179 8.0 12.0 0.00 0.00 0.00 90 1015.8
20260901232234 58 228 7.0 11.0 0.00 0.00 0.00 90 1015.8
20260901231734 58 196 7.0 14.0 0.00 0.00 0.00 89 1015.7
20260901231233 58 192 7.0 14.0 0.00 0.00 0.00 89 1015.8
20260901230245 58 228 5.0 12.0 0.00 0.00 0.00 88 1015.8
20260901225734 58 204 5.0 12.0 0.00 0.00 0.00 88 1015.8
20260901225234 58 185 6.0 15.0 0.00 0.00 0.00 87 1015.8
20260901224735 59 188 8.0 15.0 0.00 0.00 0.00 87 1015.8
20260901224232 59 183 8.0 13.0 0.00 0.00 0.00 87 1015.9
20260901223732 59 206 7.0 18.0 0.00 0.00 0.00 87 1015.9
20260901223233 59 214 11.0 18.0 0.00 0.00 0.00 86 1015.8
20260901222734 59 240 7.0 17.0 0.00 0.00 0.00 85 1015.8
20260901220235 59 197 4.0 15.0 0.00 0.00 0.00 85 1015.8
20260901215725 59 197 5.0 15.0 0.00 0.00 0.00 85 1015.9
20260901214705 59 185 7.0 18.0 0.00 0.00 0.00 84 1015.9
20260901214154 59 221 9.0 18.0 0.00 0.00 0.00 84 1015.9
20260901213636 59 257 9.0 17.0 0.00 0.00 0.00 84 1015.8
20260901212134 59 244 12.0 20.0 0.00 0.00 0.00 83 1015.9
20260901211633 59 196 11.0 20.0 0.00 0.00 0.00 83 1015.9
20260901211134 59 216 9.0 17.0 0.00 0.00 0.00 83 1016.0
20260901210635 59 204 9.0 17.0 0.00 0.00 0.00 83 1016.0
20260901210135 59 238 12.0 17.0 0.00 0.00 0.00 83 1016.0
20260901205633 59 217 11.0 16.0 0.00 0.00 0.00 83 1016.0
20260901205135 59 210 8.0 16.0 0.00 0.00 0.00 83 1015.9
20260901204633 59 224 9.0 16.0 0.00 0.00 0.00 83 1015.8
20260901204133 59 212 8.0 16.0 0.00 0.00 0.00 83 1015.8
20260901203633 59 204 6.0 15.0 0.00 0.00 0.00 83 1015.9
20260901203136 59 226 6.0 15.0 0.00 0.00 0.00 83 1016.0
20260901202638 59 216 8.0 15.0 0.00 0.00 0.00 83 1015.9
20260901202141 59 186 6.0 14.0 0.00 0.00 0.00 83 1016.0
20260901201133 59 216 5.0 12.0 0.00 0.00 0.00 82 1016.1
20260901200634 60 199 7.0 14.0 0.00 0.00 0.00 82 1016.2
20260901200134 60 228 8.0 14.0 0.00 0.00 0.00 82 1016.1
20260901195634 60 206 8.0 15.0 0.00 0.00 0.00 81 1016.1
20260901195133 60 223 7.0 15.0 0.00 0.00 0.00 81 1016.1
20260901194134 60 183 8.0 16.0 0.00 0.00 0.00 80 1016.0
20260901193633 60 186 10.0 16.0 0.00 0.00 0.00 80 1016.0
20260901192638 60 241 7.0 12.0 0.00 0.00 0.00 80 1015.9
20260901192134 60 182 3.0 13.0 0.00 0.00 0.00 80 1016.0
20260901191633 60 250 6.0 15.0 0.00 0.00 0.00 79 1015.9
20260901191133 60 212 7.0 15.0 0.00 0.00 0.00 79 1015.9
20260901190634 60 240 7.0 14.0 0.00 0.00 0.00 79 1015.9
20260901190134 60 217 9.0 14.0 0.00 0.00 0.00 79 1015.8
20260901185633 60 223 5.0 14.0 0.00 0.00 0.00 79 1015.8
20260901184633 60 203 7.0 16.0 0.00 0.00 0.00 78 1015.6
20260901184134 60 224 7.0 16.0 0.00 0.00 0.00 78 1015.5
20260901183632 60 210 5.0 12.0 0.00 0.00 0.00 78 1015.6
20260901183135 60 196 8.0 13.0 0.00 0.00 0.00 78 1015.6
20260901182634 60 238 8.0 17.0 0.00 0.00 0.00 77 1015.7
20260901182138 60 259 9.0 17.0 0.00 0.00 0.00 77 1015.6
20260901181638 60 281 9.0 17.0 0.00 0.00 0.00 77 1015.7
20260901180634 61 240 7.0 16.0 0.00 0.00 0.00 77 1015.7
20260901180134 61 276 7.0 16.0 0.00 0.00 0.00 76 1015.7
20260901175135 61 237 5.0 14.0 0.00 0.00 0.00 75 1015.8
20260901174634 61 265 7.0 17.0 0.00 0.00 0.00 75 1015.6
20260901174136 61 252 7.0 17.0 0.00 0.00 0.00 75 1015.5
20260901173136 61 223 9.0 23.0 0.00 0.00 0.00 74 1015.6
20260901172638 61 212 10.0 20.0 0.00 0.00 0.00 74 1015.6
20260901172134 61 180 14.0 20.0 0.00 0.00 0.00 74 1015.5
20260901171635 61 206 11.0 21.0 0.00 0.00 0.00 73 1015.5
20260901171133 62 217 12.0 21.0 0.00 0.00 0.00 73 1015.5
20260901170634 62 195 5.0 20.0 0.00 0.00 0.00 73 1015.5
20260901170134 62 203 11.0 20.0 0.00 0.00 0.00 73 1015.5
20260901165635 62 230 5.0 23.0 0.00 0.00 0.00 73 1015.5
20260901165137 62 230 15.0 23.0 0.00 0.00 0.00 73 1015.5
20260901164635 62 217 10.0 18.0 0.00 0.00 0.00 74 1015.6
20260901163135 62 220 8.0 20.0 0.00 0.00 0.00 73 1015.5
20260901162633 62 214 9.0 18.0 0.00 0.00 0.00 73 1015.5
20260901162135 62 176 11.0 18.0 0.00 0.00 0.00 73 1015.3